Regional Weather Roundup
Issued by NWS

Home | Current Version | Previous Version | Text Only | Print | Product List | Glossary Off
Versions: 1 2 3 4 5 6 7 8 9 10 11 12 13 14 15 16 17 18 19 20 21 22 23 24 25 26 27 28 29 30 31 32 33 34 35 36 37 38 39 40 41 42 43 44 45 46 47 48 49 50

000
ASUS43 KMKX 301000
RWRWI

WISCONSIN REGIONAL WEATHER ROUNDUP
NATIONAL WEATHER SERVICE MILWAUKEE/SULLIVAN WI
500 AM CDT FRI SEP 30 2016

NOTE: "FAIR" INDICATES FEW OR NO CLOUDS BELOW 12,000 FEET WITH NO
SIGNIFICANT WEATHER AND/OR OBSTRUCTIONS TO VISIBILITY.

WIZ001-002-006>008-014>016-023>028-301100-
NORTHWEST WISCONSIN

CITY           SKY/WX    TMP DP  RH WIND       PRES   REMARKS
SUPERIOR ARPT  CLOUDY    53  51  95 E3        30.44F
ASHLAND        CLOUDY    54  52  93 E13       30.45S
HAYWARD        CLOUDY    50  48  93 NE7       30.43S
SIREN          CLOUDY    52  50  94 CALM      30.41F
CUMBERLAND     CLEAR     46  46 100 NE3       30.40F
RICE LAKE      CLEAR     47  46  96 CALM      30.41S FOG
CHETEK         NOT AVBL
LADYSMITH      CLEAR     47  46  97 N5        30.42S
EAU CLAIRE     CLEAR     50  49  96 NE3       30.37F
MENOMONIE      CLEAR     50  49  97 N5        30.39S
NEW RICHMOND   CLEAR     49  49 100 NE6       30.39S
OSCEOLA        CLEAR     49  49 100 CALM      30.42S
$$

WIZ003>005-009-010-017-018-301100-
NORTH CENTRAL WISCONSIN

CITY           SKY/WX    TMP DP  RH WIND       PRES   REMARKS
MANITOWISH WTR NOT AVBL
ARBOR VITAE    CLEAR     49  48  96 NE5       30.40F
WOODRUFF       CLEAR     49  48  96 NE5       30.40F
RHINELANDER    CLEAR     46  46 100 N3        30.40S
EAGLE RIVER    CLEAR     43  43 100 CALM      30.40F FOG
LAND O LAKES   MOCLDY    47  47 100 N5        30.43S FOG
PHILLIPS       CLOUDY    47  47 100 CALM      30.41S FOG
TOMAHAWK       CLEAR     43  43  98 CALM      30.39F FOG
MEDFORD        CLEAR    N/A N/A N/A N3        30.37F
MERRILL        CLEAR     46  46 100 N5        30.38S
$$

WIZ029-030-035-036-043>047-301100-
CENTRAL WISCONSIN

CITY           SKY/WX    TMP DP  RH WIND       PRES   REMARKS
WAUSAU         CLEAR     50  47  89 N7        30.33F
MOSINEE        CLEAR     50  46  87 N9        30.34S
MARSHFIELD     CLEAR     52  47  83 NE10      30.33S
STEVENS POINT  CLEAR     49  48  96 N6        30.33S
WAUPACA        CLOUDY    57  53  88 N7        30.32R
WAUTOMA        CLOUDY    56  52  86 NE8       30.31R
WISC RAPIDS    CLEAR     52  50  93 NE10      30.33F
CAMP DOUGLAS   NOT AVBL
$$

WIZ011>013-019>022-031-037>040-048>050-301100-
NORTHEAST WISCONSIN

CITY           SKY/WX    TMP DP  RH WIND       PRES   REMARKS
ANTIGO         CLEAR     47  47  98 CALM      30.36S
SHAWANO        CLOUDY    57  53  85 NE10      30.33S
OCONTO         NOT AVBL
STURGEON BAY   CLOUDY    60  57  89 N7        30.31F
GREEN BAY      CLOUDY    57  56  96 N10       30.30S
MANITOWOC      NOT AVBL
APPLETON       CLOUDY    55  54  94 NE10      30.28F
CLINTONVILLE   MOCLDY    54  50  87 NE8       30.32R
OSHKOSH        CLOUDY    58  56  93 NE14G21   30.28R
$$

WIZ032>034-041-042-053>061-301100-
SOUTHWEST WISCONSIN

CITY           SKY/WX    TMP DP  RH WIND       PRES   REMARKS
LA CROSSE      CLEAR     54  51  90 N7        30.32S
SPARTA         MOCLDY    48  48 100 CALM      30.32F
VIROQUA        MOCLDY    53  51  95 N6        30.30F
BOSCOBEL       CLOUDY    60  54  80 NE5       30.28R
PRAIRIE DU CHI CLOUDY    55  50  83 NW6       30.28F
PLATTEVILLE    CLOUDY    56  55  97 NE10      30.25F
$$

WIZ056-057-062-063-064-067-068-301100-
SOUTH CENTRAL WISCONSIN

CITY           SKY/WX    TMP DP  RH WIND       PRES   REMARKS
REEDSBURG      NOT AVBL
BARABOO/DELLS  CLOUDY    56  52  85 NE7       30.28S
LONE ROCK      NOT AVBL
MINERAL POINT  CLOUDY    57  55  94 N7        30.26S
MADISON        CLOUDY    57  54  89 N10       30.25S
MIDDLETON      CLOUDY    58  58  98 N9        30.26S
WATERTOWN      CLOUDY    59  57  92 N10       30.24S
MONROE         CLOUDY    57  54  88 N12G18    30.23S
JANESVILLE     CLOUDY    59  57  94 N6        30.21S
$$

WIZ051-052-058>065-066-070>072-301100-
SOUTHEAST WISCONSIN

CITY           SKY/WX    TMP DP  RH WIND       PRES   REMARKS
MILWAUKEE      CLOUDY    61  56  83 NE14G22   30.21F
WAUKESHA       CLOUDY    57  54  88 NE9G16    30.24S
MILWAUKEE/TIMM CLOUDY    61  52  72 NE12G20   30.23S
RACINE         CLOUDY    61  57  87 MISG      30.21F
BURLINGTON     DRIZZLE   57  56  95 N10       30.21R
KENOSHA        CLOUDY    61  58  90 NE10      30.19F
FOND DU LAC    CLOUDY    59  57  93 NE13      30.27S
SHEBOYGAN      CLOUDY    60  55  83 NE16      30.25F
WEST BEND      CLOUDY    64  63  94 NE10G16   30.25S
JUNEAU         CLOUDY    58  55  87 N9        30.27R
$$

LSZ147-162-301100-
LAKE SUPERIOR

STATION/POSITION TIME  TEMP    WIND        PRES    WAVE
                       AIR SEA DIR/SP/G            HT/PER
                 (UTC) (F)     (DEG/KT/KT) (MB)    (FT/S)
W MID LAKE BUOY  0850   55 56   60/  8/ 10 1031.1F   1/ 5
DEVILS ISLAND    0900   53      40/  9/ 10 1031.8S
SAXON HARBOR     0900   52     150/  3/  4 1030.5S
$$

LMZ867-665-643>646-301100-
LAKE MICHIGAN

STATION/POSITION TIME  TEMP    WIND        PRES    WAVE
                       AIR SEA DIR/SP/G            HT/PER
                 (UTC) (F)     (DEG/KT/KT) (MB)    (FT/S)
CHAMBERS ISLAND  0900   62     360/ 16/ 18 1026.4S
S GREEN BAY BUOY 0900   59 62   30/ 16/ 19 1025.6F
N MID LAKE BUOY  0850   64 65   80/ 17/ 21 1026.2S   4/ 5
NORTHPORT PIER   0900   64      50/ 13/ 16 1026.8S
SISTER BAY       0908   60      20/  7/  9   N/A
KEWAUNEE LAKESHO 0900   62      50/ 10/ 14 1025.1S
SHEBOYGAN LAKESH 0900   61      30/ 17/ 18 1024.4R
PORT WASHINGTON  0940   60      50/ 12/ 15 1024.4F
ATWATER BUOY     0900   57 53   30/ 10/ 14 1023.2S
MILWAUKEE LAKESH 0910   58      30/ 13/ 14   N/A
S MID LAKE BUOY  0850   63 68   60/ 19/ 21 1021.3S   5/ 6
KENOSHA   LAKESH 0900   62      50/ 19/ 23 1022.0S
$$

TC  - TEMPERATURE IN CELSIUS
VSB - VISIBILITY IN STATUTE MILES
WCI - WIND CHILL INDEX
HX  - HEAT INDEX





USA.gov is the U.S. government's official web portal to all federal, state and local government web resources and services.